Location: Drignac
(45.1667°N, 2.0333°E)
Time: 06:17:44
(UTC+00:00)

Meteor 2-5 Rocket - Pass Details

Date: 29 March 2020
Orbit: 833 x 912 km, 81.2° (Epoch: 29 May)

Event Time Altitude Azimuth Distance (km) Brightness Sun altitude
Rises 19:11:39 0° 346° (NNW) 3,463 7.3 -10.4°
Reaches altitude 10° 19:14:07 10° 344° (NNW) 2,509 6.6 -10.8°
Maximum altitude 19:19:45 67° 264° (W) 920 4.1 -11.7°
Drops below altitude 10° 19:25:14 10° 182° (S) 2,448 5.9 -12.6°
Sets 19:27:38 0° 180° (S) 3,372 6.6 -13.0°
